Location: *
(55.5817°S, 142.4781°W)
Time: 06:11:11
(UTC+00:00)

Cosmos 1975 Rocket - Pass Details

Date: 29 April 2025
Orbit: 599 x 626 km, 82.5° (Epoch: 23 May)

Event Time Altitude Azimuth Distance (km) Brightness Sun altitude
Rises 15:58:30 0° 189° (S) 2,926 6.3 -7.7°
Reaches altitude 10° 16:00:50 10° 183° (S) 2,008 5.5 -7.4°
Maximum altitude 16:05:07 45° 109° (ESE) 849 4.3 -6.8°
Drops below altitude 10° 16:09:19 10° 35° (NE) 1,970 6.5 -6.3°
Sets 16:11:35 0° 28° (NNE) 2,864 7.3 -6.0°
